| time (UTC) | temp C | wind direction | speed KPH | gust KPH | rain 1hr cm | rain 24hr cm | rain mn cm | humidity % | barometer mb |
| 20260509004534 | 23 | 254 | 11.3 | 16.1 | 0.00 | 0.00 | 0.00 | 31 | 1004.8 |
| 20260509004241 | 23 | 238 | 11.3 | 16.1 | 0.00 | 0.00 | 0.00 | 31 | 1005.9 |
| 20260509003724 | 23 | 248 | 9.7 | 16.1 | 0.00 | 0.00 | 0.00 | 31 | 1005.9 |
| 20260509003229 | 23 | 215 | 4.8 | 14.5 | 0.00 | 0.00 | 0.00 | 32 | 1005.9 |
| 20260509003005 | 23 | 215 | 8.0 | 14.5 | 0.00 | 0.00 | 0.00 | 32 | 1004.8 |
| 20260509002739 | 23 | 207 | 9.7 | 16.1 | 0.00 | 0.00 | 0.00 | 31 | 1005.8 |
| 20260509002248 | 24 | 231 | 11.3 | 16.1 | 0.00 | 0.00 | 0.00 | 31 | 1005.8 |
| 20260509001731 | 24 | 209 | 12.9 | 17.7 | 0.00 | 0.00 | 0.00 | 31 | 1005.8 |
| 20260509001504 | 24 | 214 | 9.7 | 19.3 | 0.00 | 0.00 | 0.00 | 32 | 1004.7 |
| 20260509001302 | 24 | 216 | 11.3 | 22.5 | 0.00 | 0.00 | 0.00 | 31 | 1005.8 |
| 20260509000749 | 25 | 205 | 14.5 | 22.5 | 0.00 | 0.00 | 0.00 | 30 | 1005.8 |
| 20260509000233 | 25 | 178 | 11.3 | 17.7 | 0.00 | 0.00 | 0.00 | 32 | 1005.8 |
| 20260509000046 | 24 | 210 | 11.3 | 17.7 | 0.00 | 0.00 | 0.00 | 31 | 1004.8 |
| 20260508235739 | 24 | 209 | 12.9 | 19.3 | 0.00 | 0.00 | 0.00 | 30 | 1005.8 |
| 20260508235222 | 25 | 226 | 12.9 | 27.4 | 0.00 | 0.00 | 0.00 | 30 | 1005.9 |
| 20260508234732 | 25 | 191 | 12.9 | 27.4 | 0.00 | 0.00 | 0.00 | 30 | 1005.9 |
| 20260508234554 | 24 | 201 | 12.9 | 27.4 | 0.00 | 0.00 | 0.00 | 31 | 1004.9 |
| 20260508234247 | 25 | 212 | 17.7 | 27.4 | 0.00 | 0.00 | 0.00 | 31 | 1006.1 |
| 20260508233725 | 24 | 199 | 12.9 | 24.1 | 0.00 | 0.00 | 0.00 | 31 | 1006.0 |
| 20260508233255 | 24 | 221 | 11.3 | 24.1 | 0.00 | 0.00 | 0.00 | 30 | 1006.0 |
| 20260508233030 | 24 | 179 | 11.3 | 24.1 | 0.00 | 0.00 | 0.00 | 30 | 1004.9 |
| 20260508232745 | 24 | 217 | 12.9 | 20.9 | 0.00 | 0.00 | 0.00 | 29 | 1006.0 |
| 20260508232251 | 25 | 194 | 12.9 | 25.7 | 0.00 | 0.00 | 0.00 | 29 | 1006.0 |
| 20260508231742 | 25 | 205 | 16.1 | 25.7 | 0.00 | 0.00 | 0.00 | 29 | 1006.0 |
| 20260508231621 | 25 | 186 | 17.7 | 25.7 | 0.00 | 0.00 | 0.00 | 29 | 1004.9 |
| 20260508231228 | 25 | 178 | 16.1 | 25.7 | 0.00 | 0.00 | 0.00 | 29 | 1006.0 |
| 20260508230738 | 25 | 192 | 14.5 | 20.9 | 0.00 | 0.00 | 0.00 | 29 | 1006.1 |
| 20260508230249 | 25 | 189 | 14.5 | 22.5 | 0.00 | 0.00 | 0.00 | 28 | 1006.2 |
| 20260508230021 | 25 | 165 | 16.1 | 22.5 | 0.00 | 0.00 | 0.00 | 28 | 1005.1 |
| 20260508225755 | 25 | 201 | 14.5 | 22.5 | 0.00 | 0.00 | 0.00 | 31 | 1006.2 |
| 20260508225241 | 25 | 224 | 11.3 | 17.7 | 0.00 | 0.00 | 0.00 | 30 | 1006.2 |
| 20260508224723 | 25 | 203 | 12.9 | 19.3 | 0.00 | 0.00 | 0.00 | 29 | 1006.3 |
| 20260508224526 | 25 | 219 | 12.9 | 19.3 | 0.00 | 0.00 | 0.00 | 27 | 1005.2 |
| 20260508224237 | 25 | 229 | 12.9 | 19.3 | 0.00 | 0.00 | 0.00 | 27 | 1006.3 |
| 20260508223748 | 25 | 235 | 11.3 | 20.9 | 0.00 | 0.00 | 0.00 | 29 | 1006.3 |
| 20260508223230 | 25 | 209 | 14.5 | 20.9 | 0.00 | 0.00 | 0.00 | 29 | 1006.3 |
| 20260508223037 | 25 | 178 | 14.5 | 32.2 | 0.00 | 0.00 | 0.00 | 30 | 1005.2 |
| 20260508222742 | 25 | 171 | 16.1 | 32.2 | 0.00 | 0.00 | 0.00 | 32 | 1006.3 |
| 20260508222224 | 25 | 219 | 22.5 | 41.8 | 0.00 | 0.00 | 0.00 | 29 | 1006.3 |
| 20260508221734 | 25 | 227 | 25.7 | 41.8 | 0.00 | 0.00 | 0.00 | 28 | 1006.3 |
| 20260508221518 | 25 | 232 | 20.9 | 38.6 | 0.00 | 0.00 | 0.00 | 29 | 1005.2 |
| 20260508221243 | 25 | 278 | 24.1 | 40.2 | 0.00 | 0.00 | 0.00 | 29 | 1006.3 |
| 20260508220725 | 25 | 221 | 27.4 | 40.2 | 0.00 | 0.00 | 0.00 | 29 | 1006.5 |
| 20260508220236 | 25 | 228 | 16.1 | 22.5 | 0.00 | 0.00 | 0.00 | 28 | 1006.6 |
| 20260508220032 | 24 | 242 | 11.3 | 16.1 | 0.00 | 0.00 | 0.00 | 29 | 1005.6 |
| 20260508215746 | 24 | 234 | 11.3 | 20.9 | 0.00 | 0.00 | 0.00 | 29 | 1006.7 |
| 20260508215257 | 23 | 206 | 12.9 | 22.5 | 0.00 | 0.00 | 0.00 | 28 | 1006.6 |
| 20260508214747 | 24 | 180 | 14.5 | 22.5 | 0.00 | 0.00 | 0.00 | 28 | 1006.6 |
| 20260508214617 | 23 | 212 | 9.7 | 17.7 | 0.00 | 0.00 | 0.00 | 28 | 1005.5 |
| 20260508214233 | 24 | 168 | 6.4 | 24.1 | 0.00 | 0.00 | 0.00 | 27 | 1006.7 |
| 20260508213757 | 25 | 196 | 14.5 | 24.1 | 0.00 | 0.00 | 0.00 | 25 | 1006.7 |
| 20260508213247 | 25 | 90 | 12.9 | 25.7 | 0.00 | 0.00 | 0.00 | 28 | 1006.8 |
| 20260508213027 | 25 | 238 | 12.9 | 20.9 | 0.00 | 0.00 | 0.00 | 26 | 1005.8 |
| 20260508212729 | 26 | 209 | 12.9 | 20.9 | 0.00 | 0.00 | 0.00 | 25 | 1006.9 |
| 20260508212241 | 26 | 192 | 14.5 | 22.5 | 0.00 | 0.00 | 0.00 | 27 | 1006.9 |
| 20260508211723 | 26 | 222 | 14.5 | 22.5 | 0.00 | 0.00 | 0.00 | 27 | 1006.9 |
| 20260508211530 | 25 | 232 | 8.0 | 29.0 | 0.00 | 0.00 | 0.00 | 27 | 1005.9 |
| 20260508211236 | 26 | 262 | 16.1 | 29.0 | 0.00 | 0.00 | 0.00 | 26 | 1007.0 |
| 20260508210746 | 26 | 219 | 20.9 | 29.0 | 0.00 | 0.00 | 0.00 | 26 | 1007.1 |
| 20260508210230 | 25 | 263 | 16.1 | 25.7 | 0.00 | 0.00 | 0.00 | 27 | 1007.1 |
| 20260508210034 | 25 | 221 | 12.9 | 25.7 | 0.00 | 0.00 | 0.00 | 27 | 1006.1 |
| 20260508205735 | 26 | 244 | 14.5 | 25.7 | 0.00 | 0.00 | 0.00 | 28 | 1007.1 |
| 20260508205243 | 26 | 258 | 12.9 | 27.4 | 0.00 | 0.00 | 0.00 | 28 | 1007.2 |
| 20260508204726 | 26 | 253 | 17.7 | 32.2 | 0.00 | 0.00 | 0.00 | 27 | 1007.3 |
| 20260508204528 | 26 | 277 | 12.9 | 32.2 | 0.00 | 0.00 | 0.00 | 28 | 1006.3 |
| 20260508204300 | 26 | 236 | 20.9 | 32.2 | 0.00 | 0.00 | 0.00 | 26 | 1007.4 |
| 20260508203722 | 26 | 242 | 11.3 | 24.1 | 0.00 | 0.00 | 0.00 | 29 | 1007.5 |
| 20260508203234 | 25 | 240 | 6.4 | 27.4 | 0.00 | 0.00 | 0.00 | 23 | 1007.5 |
| 20260508203007 | 26 | 229 | 6.4 | 27.4 | 0.00 | 0.00 | 0.00 | 25 | 1006.5 |
| 20260508202745 | 26 | 136 | 12.9 | 27.4 | 0.00 | 0.00 | 0.00 | 26 | 1007.5 |
| 20260508202223 | 27 | 180 | 11.3 | 19.3 | 0.00 | 0.00 | 0.00 | 27 | 1007.6 |
| 20260508201733 | 26 | 217 | 12.9 | 22.5 | 0.00 | 0.00 | 0.00 | 26 | 1007.7 |
| 20260508201513 | 25 | 287 | 14.5 | 22.5 | 0.00 | 0.00 | 0.00 | 27 | 1006.7 |
| 20260508201248 | 25 | 317 | 16.1 | 22.5 | 0.00 | 0.00 | 0.00 | 29 | 1007.7 |
| 20260508200728 | 25 | 319 | 11.3 | 19.3 | 0.00 | 0.00 | 0.00 | 25 | 1007.9 |
| 20260508200238 | 25 | 349 | 12.9 | 25.7 | 0.00 | 0.00 | 0.00 | 29 | 1008.0 |
| 20260508200015 | 25 | 315 | 14.5 | 25.7 | 0.00 | 0.00 | 0.00 | 29 | 1007.0 |
| 20260508195747 | 24 | 308 | 17.7 | 25.7 | 0.00 | 0.00 | 0.00 | 27 | 1007.9 |
| 20260508195236 | 25 | 276 | 17.7 | 25.7 | 0.00 | 0.00 | 0.00 | 27 | 1008.0 |
| 20260508194742 | 25 | 261 | 9.7 | 24.1 | 0.00 | 0.00 | 0.00 | 27 | 1008.1 |
| 20260508194554 | 25 | 292 | 11.3 | 24.1 | 0.00 | 0.00 | 0.00 | 29 | 1007.1 |
| 20260508194226 | 26 | 351 | 12.9 | 24.1 | 0.00 | 0.00 | 0.00 | 25 | 1008.1 |
| 20260508193736 | 26 | 340 | 14.5 | 24.1 | 0.00 | 0.00 | 0.00 | 26 | 1008.2 |
| 20260508193226 | 26 | 317 | 19.3 | 24.1 | 0.00 | 0.00 | 0.00 | 26 | 1008.2 |
| 20260508193105 | 26 | 324 | 11.3 | 19.3 | 0.00 | 0.00 | 0.00 | 26 | 1007.2 |
| 20260508192736 | 26 | 299 | 9.7 | 14.5 | 0.00 | 0.00 | 0.00 | 30 | 1008.3 |
| 20260508192307 | 25 | 207 | 1.6 | 16.1 | 0.00 | 0.00 | 0.00 | 31 | 1008.3 |
| 20260508191730 | 25 | 205 | 6.4 | 16.1 | 0.00 | 0.00 | 0.00 | 31 | 1008.3 |
| 20260508191535 | 24 | 205 | 9.7 | 16.1 | 0.00 | 0.00 | 0.00 | 28 | 1007.4 |
| 20260508191238 | 24 | 224 | 11.3 | 22.5 | 0.00 | 0.00 | 0.00 | 29 | 1008.4 |
| 20260508190720 | 23 | 207 | 6.4 | 22.5 | 0.00 | 0.00 | 0.00 | 25 | 1008.5 |
| 20260508190233 | 24 | 271 | 14.5 | 20.9 | 0.00 | 0.00 | 0.00 | 25 | 1008.5 |
| 20260508190028 | 24 | 242 | 11.3 | 17.7 | 0.00 | 0.00 | 0.00 | 27 | 1007.6 |
| 20260508185805 | 24 | 205 | 11.3 | 19.3 | 0.00 | 0.00 | 0.00 | 27 | 1008.6 |
| 20260508185227 | 24 | 201 | 4.8 | 20.9 | 0.00 | 0.00 | 0.00 | 25 | 1008.7 |
| 20260508184737 | 25 | 222 | 14.5 | 20.9 | 0.00 | 0.00 | 0.00 | 29 | 1008.7 |
| 20260508184559 | 25 | 224 | 12.9 | 17.7 | 0.00 | 0.00 | 0.00 | 28 | 1007.7 |
| 20260508184502 | 25 | 270 | 8.0 | 17.7 | 0.00 | 0.00 | 0.00 | 27 | 1007.7 |
| 20260508184250 | 25 | 244 | 8.0 | 17.7 | 0.00 | 0.00 | 0.00 | 28 | 1008.7 |
| 20260508183730 | 25 | 207 | 6.4 | 16.1 | 0.00 | 0.00 | 0.00 | 24 | 1008.7 |
| 20260508183237 | 24 | 213 | 11.3 | 17.7 | 0.00 | 0.00 | 0.00 | 28 | 1008.8 |
| 20260508183001 | 24 | 222 | 8.0 | 17.7 | 0.00 | 0.00 | 0.00 | 25 | 1007.9 |
| 20260508182748 | 24 | 258 | 8.0 | 17.7 | 0.00 | 0.00 | 0.00 | 26 | 1008.9 |
| 20260508182232 | 24 | 200 | 8.0 | 14.5 | 0.00 | 0.00 | 0.00 | 26 | 1008.9 |
| 20260508181742 | 24 | 232 | 3.2 | 16.1 | 0.00 | 0.00 | 0.00 | 28 | 1008.9 |
| 20260508181507 | 24 | 232 | 6.4 | 16.1 | 0.00 | 0.00 | 0.00 | 28 | 1008.1 |
| 20260508181224 | 25 | 256 | 8.0 | 16.1 | 0.00 | 0.00 | 0.00 | 28 | 1009.0 |
| 20260508180732 | 25 | 348 | 6.4 | 9.7 | 0.00 | 0.00 | 0.00 | 26 | 1009.1 |
| 20260508180243 | 25 | 65 | 4.8 | 8.0 | 0.00 | 0.00 | 0.00 | 29 | 1009.1 |
| 20260508180044 | 25 | 65 | 1.6 | 9.7 | 0.00 | 0.00 | 0.00 | 30 | 1008.2 |
| 20260508175728 | 24 | 217 | 4.8 | 12.9 | 0.00 | 0.00 | 0.00 | 31 | 1009.1 |
| 20260508175254 | 23 | 126 | 6.4 | 12.9 | 0.00 | 0.00 | 0.00 | 25 | 1009.1 |
| 20260508174745 | 23 | 95 | 9.7 | 14.5 | 0.00 | 0.00 | 0.00 | 30 | 1009.2 |
| 20260508174611 | 23 | 81 | 4.8 | 14.5 | 0.00 | 0.00 | 0.00 | 28 | 1008.3 |
| 20260508174236 | 23 | 108 | 9.7 | 14.5 | 0.00 | 0.00 | 0.00 | 28 | 1009.3 |
| 20260508173747 | 23 | 99 | 6.4 | 9.7 | 0.00 | 0.00 | 0.00 | 29 | 1009.4 |
| 20260508173229 | 23 | 103 | 4.8 | 11.3 | 0.00 | 0.00 | 0.00 | 30 | 1009.4 |
| 20260508173006 | 22 | 5 | 4.8 | 12.9 | 0.00 | 0.00 | 0.00 | 29 | 1008.5 |
| 20260508172741 | 23 | 28 | 6.4 | 12.9 | 0.00 | 0.00 | 0.00 | 27 | 1009.4 |
| 20260508172221 | 23 | 5 | 8.0 | 12.9 | 0.00 | 0.00 | 0.00 | 27 | 1009.5 |
| 20260508171754 | 23 | 28 | 3.2 | 8.0 | 0.00 | 0.00 | 0.00 | 31 | 1009.5 |
| 20260508171551 | 23 | 279 | 1.6 | 9.7 | 0.00 | 0.00 | 0.00 | 30 | 1008.6 |
| 20260508171244 | 23 | 279 | 1.6 | 12.9 | 0.00 | 0.00 | 0.00 | 28 | 1009.6 |
| 20260508170726 | 23 | 19 | 8.0 | 16.1 | 0.00 | 0.00 | 0.00 | 26 | 1009.6 |
| 20260508170237 | 23 | 17 | 9.7 | 16.1 | 0.00 | 0.00 | 0.00 | 32 | 1009.6 |
| 20260508170054 | 23 | 355 | 4.8 | 16.1 | 0.00 | 0.00 | 0.00 | 31 | 1008.6 |
| 20260508170003 | 23 | 342 | 4.8 | 16.1 | 0.00 | 0.00 | 0.00 | 31 | 1008.6 |
| 20260508165720 | 23 | 202 | 1.6 | 16.1 | 0.00 | 0.00 | 0.00 | 31 | 1009.6 |
| 20260508165233 | 23 | 48 | 8.0 | 16.1 | 0.00 | 0.00 | 0.00 | 29 | 1009.6 |
| 20260508164741 | 24 | 317 | 6.4 | 17.7 | 0.00 | 0.00 | 0.00 | 29 | 1009.6 |
| 20260508164516 | 23 | 360 | 11.3 | 17.7 | 0.00 | 0.00 | 0.00 | 27 | 1008.6 |
| 20260508164225 | 23 | 63 | 11.3 | 17.7 | 0.00 | 0.00 | 0.00 | 28 | 1009.5 |
| 20260508163754 | 24 | 320 | 6.4 | 12.9 | 0.00 | 0.00 | 0.00 | 33 | 1009.6 |
| 20260508163244 | 23 | 134 | 4.8 | 12.9 | 0.00 | 0.00 | 0.00 | 37 | 1009.7 |
| 20260508163042 | 22 | 134 | 3.2 | 12.9 | 0.00 | 0.00 | 0.00 | 32 | 1008.7 |
| 20260508162728 | 23 | 93 | 9.7 | 12.9 | 0.00 | 0.00 | 0.00 | 32 | 1009.7 |
| 20260508162240 | 22 | 60 | 3.2 | 8.0 | 0.00 | 0.00 | 0.00 | 35 | 1009.6 |
| 20260508161749 | 22 | 120 | 1.6 | 14.5 | 0.00 | 0.00 | 0.00 | 36 | 1009.7 |
| 20260508161534 | 22 | 120 | 4.8 | 14.5 | 0.00 | 0.00 | 0.00 | 34 | 1008.7 |
| 20260508161238 | 22 | 140 | 8.0 | 14.5 | 0.00 | 0.00 | 0.00 | 35 | 1009.6 |
| 20260508160721 | 22 | 134 | 3.2 | 9.7 | 0.00 | 0.00 | 0.00 | 35 | 1009.7 |
| 20260508160253 | 22 | 143 | 3.2 | 9.7 | 0.00 | 0.00 | 0.00 | 40 | 1009.8 |
| 20260508160014 | 21 | 162 | 3.2 | 12.9 | 0.00 | 0.00 | 0.00 | 36 | 1008.8 |
| 20260508155743 | 21 | 227 | 3.2 | 12.9 | 0.00 | 0.00 | 0.00 | 39 | 1009.9 |
| 20260508155227 | 22 | 202 | 8.0 | 12.9 | 0.00 | 0.00 | 0.00 | 41 | 1009.8 |
| 20260508154739 | 21 | 130 | 6.4 | 11.3 | 0.00 | 0.00 | 0.00 | 45 | 1009.9 |
| 20260508154515 | 21 | 163 | 4.8 | 12.9 | 0.00 | 0.00 | 0.00 | 42 | 1009.0 |
| 20260508154225 | 21 | 161 | 4.8 | 12.9 | 0.00 | 0.00 | 0.00 | 46 | 1009.9 |
| 20260508153733 | 20 | 171 | 6.4 | 17.7 | 0.00 | 0.00 | 0.00 | 42 | 1010.0 |
| 20260508153240 | 20 | 184 | 4.8 | 17.7 | 0.00 | 0.00 | 0.00 | 47 | 1010.0 |
| 20260508153051 | 19 | 157 | 8.0 | 17.7 | 0.00 | 0.00 | 0.00 | 44 | 1009.1 |
| 20260508152723 | 20 | 155 | 8.0 | 12.9 | 0.00 | 0.00 | 0.00 | 45 | 1010.1 |
| 20260508152233 | 18 | 146 | 6.4 | 12.9 | 0.00 | 0.00 | 0.00 | 47 | 1010.0 |
| 20260508151745 | 18 | 144 | 6.4 | 12.9 | 0.00 | 0.00 | 0.00 | 47 | 1009.9 |
| 20260508151601 | 18 | 144 | 8.0 | 12.9 | 0.00 | 0.00 | 0.00 | 48 | 1009.1 |
| 20260508151230 | 18 | 153 | 8.0 | 12.9 | 0.00 | 0.00 | 0.00 | 47 | 1009.9 |
| 20260508150801 | 18 | 148 | 8.0 | 17.7 | 0.00 | 0.00 | 0.00 | 46 | 1009.9 |
| 20260508150223 | 18 | 175 | 9.7 | 17.7 | 0.00 | 0.00 | 0.00 | 45 | 1010.0 |
| 20260508150043 | 18 | 165 | 11.3 | 17.7 | 0.00 | 0.00 | 0.00 | 43 | 1009.1 |
| 20260508145729 | 18 | 147 | 12.9 | 16.1 | 0.00 | 0.00 | 0.00 | 45 | 1010.0 |
| 20260508145241 | 17 | 172 | 8.0 | 14.5 | 0.00 | 0.00 | 0.00 | 53 | 1010.0 |
| 20260508144724 | 17 | 147 | 9.7 | 14.5 | 0.00 | 0.00 | 0.00 | 46 | 1010.1 |
| 20260508144546 | 17 | 124 | 9.7 | 17.7 | 0.00 | 0.00 | 0.00 | 48 | 1009.2 |
| 20260508144257 | 17 | 156 | 8.0 | 17.7 | 0.00 | 0.00 | 0.00 | 50 | 1010.2 |
| 20260508143747 | 16 | 160 | 9.7 | 19.3 | 0.00 | 0.00 | 0.00 | 52 | 1010.2 |
| 20260508143257 | 16 | 169 | 8.0 | 11.3 | 0.00 | 0.00 | 0.00 | 52 | 1010.3 |
| 20260508143053 | 16 | 170 | 6.4 | 11.3 | 0.00 | 0.00 | 0.00 | 51 | 1009.5 |
| 20260508142742 | 16 | 152 | 3.2 | 8.0 | 0.00 | 0.00 | 0.00 | 53 | 1010.3 |
| 20260508142225 | 16 | 152 | 1.6 | 11.3 | 0.00 | 0.00 | 0.00 | 54 | 1010.3 |
| 20260508141739 | 16 | 159 | 4.8 | 11.3 | 0.00 | 0.00 | 0.00 | 57 | 1010.3 |
| 20260508141555 | 15 | 163 | 4.8 | 11.3 | 0.00 | 0.00 | 0.00 | 55 | 1009.4 |
| 20260508141249 | 15 | 180 | 6.4 | 9.7 | 0.00 | 0.00 | 0.00 | 55 | 1010.2 |
| 20260508140730 | 15 | 166 | 6.4 | 11.3 | 0.00 | 0.00 | 0.00 | 57 | 1010.2 |
| 20260508140241 | 14 | 184 | 8.0 | 11.3 | 0.00 | 0.00 | 0.00 | 59 | 1010.3 |
| 20260508140044 | 13 | 171 | 3.2 | 6.4 | 0.00 | 0.00 | 0.00 | 60 | 1009.4 |
| 20260508135724 | 13 | 171 | 3.2 | 6.4 | 0.00 | 0.00 | 0.00 | 63 | 1010.3 |
| 20260508135232 | 12 | 171 | 1.6 | 6.4 | 0.00 | 0.00 | 0.00 | 65 | 1010.2 |
| 20260508134744 | 12 | 171 | 3.2 | 6.4 | 0.00 | 0.00 | 0.00 | 67 | 1010.3 |
| 20260508134528 | 12 | 171 | 3.2 | 8.0 | 0.00 | 0.00 | 0.00 | 66 | 1009.4 |
| 20260508134227 | 12 | 171 | 3.2 | 9.7 | 0.00 | 0.00 | 0.00 | 64 | 1010.3 |
| 20260508133736 | 12 | 171 | 6.4 | 9.7 | 0.00 | 0.00 | 0.00 | 64 | 1010.4 |
| 20260508133247 | 12 | 171 | 4.8 | 8.0 | 0.00 | 0.00 | 0.00 | 62 | 1010.4 |
| 20260508133031 | 12 | 178 | 1.6 | 4.8 | 0.00 | 0.00 | 0.00 | 62 | 1009.6 |
| 20260508132728 | 12 | 178 | 3.2 | 8.0 | 0.00 | 0.00 | 0.00 | 62 | 1010.4 |
| 20260508132240 | 12 | 178 | 3.2 | 9.7 | 0.00 | 0.00 | 0.00 | 62 | 1010.4 |
| 20260508131724 | 12 | 175 | 6.4 | 11.3 | 0.00 | 0.00 | 0.00 | 61 | 1010.4 |
| 20260508131542 | 11 | 185 | 6.4 | 11.3 | 0.00 | 0.00 | 0.00 | 61 | 1009.6 |
| 20260508131232 | 12 | 189 | 6.4 | 11.3 | 0.00 | 0.00 | 0.00 | 60 | 1010.3 |
| 20260508130741 | 12 | 162 | 6.4 | 12.9 | 0.00 | 0.00 | 0.00 | 59 | 1010.2 |
| 20260508130310 | 12 | 157 | 8.0 | 11.3 | 0.00 | 0.00 | 0.00 | 58 | 1010.0 |
| 20260508130023 | 11 | 172 | 4.8 | 8.0 | 0.00 | 0.00 | 0.00 | 59 | 1009.2 |
| 20260508125731 | 11 | 172 | 4.8 | 8.0 | 0.00 | 0.00 | 0.00 | 58 | 1010.0 |
| 20260508125244 | 11 | 173 | 4.8 | 11.3 | 0.00 | 0.00 | 0.00 | 59 | 1009.9 |
| 20260508124727 | 11 | 218 | 6.4 | 11.3 | 0.00 | 0.00 | 0.00 | 58 | 1009.9 |
| 20260508124534 | 11 | 134 | 6.4 | 11.3 | 0.00 | 0.00 | 0.00 | 58 | 1009.1 |
| 20260508124243 | 11 | 158 | 8.0 | 11.3 | 0.00 | 0.00 | 0.00 | 58 | 1009.9 |
| 20260508123727 | 11 | 176 | 6.4 | 9.7 | 0.00 | 0.00 | 0.00 | 58 | 1009.9 |
| 20260508123235 | 11 | 158 | 3.2 | 12.9 | 0.00 | 0.00 | 0.00 | 58 | 1009.9 |
| 20260508123029 | 11 | 279 | 0.0 | 12.9 | 0.00 | 0.00 | 0.00 | 58 | 1009.1 |
| 20260508122805 | 11 | 301 | 6.4 | 12.9 | 0.00 | 0.00 | 0.00 | 60 | 1010.0 |
| 20260508122226 | 11 | 17 | 3.2 | 14.5 | 0.00 | 0.00 | 0.00 | 59 | 1009.9 |
| 20260508121739 | 10 | 13 | 6.4 | 14.5 | 0.00 | 0.00 | 0.00 | 60 | 1009.9 |
| 20260508121517 | 10 | 14 | 9.7 | 14.5 | 0.00 | 0.00 | 0.00 | 60 | 1009.2 |
| 20260508121252 | 10 | 309 | 8.0 | 12.9 | 0.00 | 0.00 | 0.00 | 60 | 1010.0 |
| 20260508120735 | 10 | 44 | 8.0 | 9.7 | 0.00 | 0.00 | 0.00 | 59 | 1009.8 |
| 20260508120246 | 10 | 348 | 6.4 | 14.5 | 0.00 | 0.00 | 0.00 | 59 | 1009.9 |
| 20260508120031 | 10 | 5 | 4.8 | 14.5 | 0.00 | 0.00 | 0.00 | 59 | 1009.0 |
| 20260508115725 | 10 | 355 | 9.7 | 14.5 | 0.00 | 0.00 | 0.00 | 59 | 1009.9 |
| 20260508115235 | 10 | 338 | 6.4 | 9.7 | 0.00 | 0.00 | 0.00 | 60 | 1010.0 |
| 20260508114748 | 10 | 355 | 6.4 | 9.7 | 0.00 | 0.00 | 0.00 | 60 | 1010.0 |
| 20260508114527 | 10 | 347 | 6.4 | 8.0 | 0.00 | 0.00 | 0.00 | 59 | 1009.2 |
| 20260508114231 | 10 | 5 | 8.0 | 8.0 | 0.00 | 0.00 | 0.00 | 59 | 1009.7 |
| 20260508113742 | 10 | 168 | 8.0 | 8.0 | 0.00 | 0.00 | 0.00 | 59 | 1009.7 |
| 20260508113224 | 10 | 168 | 6.4 | 8.0 | 0.00 | 0.00 | 0.00 | 58 | 1009.7 |
| 20260508113029 | 10 | 168 | 4.8 | 8.0 | 0.00 | 0.00 | 0.00 | 58 | 1008.9 |
| 20260508112739 | 10 | 168 | 6.4 | 8.0 | 0.00 | 0.00 | 0.00 | 58 | 1009.7 |
| 20260508112239 | 10 | 168 | 4.8 | 8.0 | 0.00 | 0.00 | 0.00 | 57 | 1009.7 |
| 20260508111739 | 10 | 168 | 4.8 | 8.0 | 0.00 | 0.00 | 0.00 | 57 | 1009.7 |
| 20260508111544 | 10 | 168 | 4.8 | 8.0 | 0.00 | 0.00 | 0.00 | 57 | 1009.0 |
| 20260508111301 | 10 | 168 | 6.4 | 9.7 | 0.00 | 0.00 | 0.00 | 57 | 1009.7 |
| 20260508110750 | 10 | 168 | 6.4 | 9.7 | 0.00 | 0.00 | 0.00 | 57 | 1009.8 |
| 20260508110306 | 10 | 168 | 8.0 | 9.7 | 0.00 | 0.00 | 0.00 | 57 | 1009.8 |
| 20260508110022 | 10 | 168 | 8.0 | 9.7 | 0.00 | 0.00 | 0.00 | 57 | 1009.0 |
| 20260508105731 | 10 | 168 | 6.4 | 8.0 | 0.00 | 0.00 | 0.00 | 57 | 1009.9 |
| 20260508105321 | 10 | 168 | 1.6 | 12.9 | 0.00 | 0.00 | 0.00 | 56 | 1009.8 |
| 20260508104728 | 10 | 168 | 8.0 | 14.5 | 0.00 | 0.00 | 0.00 | 56 | 1009.7 |
| 20260508104542 | 10 | 168 | 8.0 | 14.5 | 0.00 | 0.00 | 0.00 | 56 | 1008.9 |
| 20260508104241 | 11 | 163 | 8.0 | 14.5 | 0.00 | 0.00 | 0.00 | 55 | 1009.7 |
| 20260508103722 | 11 | 14 | 8.0 | 14.5 | 0.00 | 0.00 | 0.00 | 56 | 1010.0 |
| 20260508103235 | 11 | 20 | 9.7 | 14.5 | 0.00 | 0.00 | 0.00 | 56 | 1009.9 |
| 20260508103048 | 10 | 17 | 11.3 | 14.5 | 0.00 | 0.00 | 0.00 | 56 | 1009.2 |
| 20260508102743 | 11 | 10 | 11.3 | 16.1 | 0.00 | 0.00 | 0.00 | 57 | 1010.1 |
| 20260508102227 | 11 | 21 | 12.9 | 16.1 | 0.00 | 0.00 | 0.00 | 58 | 1010.2 |
| 20260508101740 | 11 | 12 | 11.3 | 14.5 | 0.00 | 0.00 | 0.00 | 56 | 1009.9 |
| 20260508101556 | 10 | 13 | 8.0 | 12.9 | 0.00 | 0.00 | 0.00 | 55 | 1009.2 |
| 20260508101249 | 11 | 9 | 6.4 | 9.7 | 0.00 | 0.00 | 0.00 | 56 | 1010.0 |
| 20260508100731 | 11 | 32 | 4.8 | 12.9 | 0.00 | 0.00 | 0.00 | 56 | 1010.1 |
| 20260508100259 | 11 | 5 | 9.7 | 12.9 | 0.00 | 0.00 | 0.00 | 57 | 1010.2 |
| 20260508100034 | 10 | 13 | 8.0 | 12.9 | 0.00 | 0.00 | 0.00 | 57 | 1009.4 |
| 20260508095722 | 11 | 17 | 9.7 | 14.5 | 0.00 | 0.00 | 0.00 | 59 | 1010.2 |
| 20260508095234 | 11 | 25 | 9.7 | 14.5 | 0.00 | 0.00 | 0.00 | 59 | 1010.2 |
| 20260508094744 | 11 | 19 | 9.7 | 12.9 | 0.00 | 0.00 | 0.00 | 56 | 1010.3 |
| 20260508094537 | 11 | 5 | 9.7 | 12.9 | 0.00 | 0.00 | 0.00 | 56 | 1009.7 |
| 20260508094229 | 11 | 355 | 8.0 | 12.9 | 0.00 | 0.00 | 0.00 | 56 | 1010.4 |
| 20260508093735 | 11 | 5 | 9.7 | 12.9 | 0.00 | 0.00 | 0.00 | 55 | 1010.4 |
| 20260508093247 | 11 | 5 | 8.0 | 9.7 | 0.00 | 0.00 | 0.00 | 53 | 1010.3 |
| 20260508093036 | 11 | 5 | 6.4 | 8.0 | 0.00 | 0.00 | 0.00 | 52 | 1009.6 |
| 20260508092729 | 12 | 201 | 6.4 | 6.4 | 0.00 | 0.00 | 0.00 | 51 | 1010.2 |
| 20260508092239 | 12 | 201 | 3.2 | 6.4 | 0.00 | 0.00 | 0.00 | 50 | 1010.2 |
| 20260508091750 | 12 | 201 | 3.2 | 6.4 | 0.00 | 0.00 | 0.00 | 50 | 1010.1 |
| 20260508091538 | 12 | 201 | 3.2 | 6.4 | 0.00 | 0.00 | 0.00 | 50 | 1009.5 |
| 20260508091236 | 12 | 202 | 1.6 | 4.8 | 0.00 | 0.00 | 0.00 | 50 | 1010.3 |
| 20260508090745 | 12 | 201 | 3.2 | 4.8 | 0.00 | 0.00 | 0.00 | 50 | 1010.3 |
| 20260508090225 | 12 | 201 | 0.0 | 6.4 | 0.00 | 0.00 | 0.00 | 49 | 1010.3 |
| 20260508090040 | 12 | 201 | 0.0 | 6.4 | 0.00 | 0.00 | 0.00 | 49 | 1009.7 |
| 20260508085752 | 12 | 201 | 4.8 | 6.4 | 0.00 | 0.00 | 0.00 | 48 | 1010.2 |
| 20260508085243 | 12 | 5 | 0.0 | 6.4 | 0.00 | 0.00 | 0.00 | 49 | 1010.3 |
| 20260508084726 | 12 | 5 | 1.6 | 6.4 | 0.00 | 0.00 | 0.00 | 49 | 1010.5 |
| 20260508084522 | 12 | 5 | 3.2 | 6.4 | 0.00 | 0.00 | 0.00 | 51 | 1009.7 |
| 20260508084240 | 12 | 360 | 4.8 | 8.0 | 0.00 | 0.00 | 0.00 | 50 | 1010.3 |
| 20260508083751 | 12 | 20 | 4.8 | 8.0 | 0.00 | 0.00 | 0.00 | 49 | 1010.1 |
| 20260508083301 | 12 | 204 | 4.8 | 6.4 | 0.00 | 0.00 | 0.00 | 48 | 1010.1 |
| 20260508083037 | 12 | 204 | 3.2 | 6.4 | 0.00 | 0.00 | 0.00 | 49 | 1009.4 |
| 20260508082725 | 13 | 204 | 1.6 | 6.4 | 0.00 | 0.00 | 0.00 | 48 | 1010.5 |
| 20260508082252 | 13 | 204 | 4.8 | 6.4 | 0.00 | 0.00 | 0.00 | 48 | 1010.2 |
| 20260508081742 | 13 | 204 | 3.2 | 6.4 | 0.00 | 0.00 | 0.00 | 48 | 1010.3 |
| 20260508081520 | 12 | 204 | 0.0 | 6.4 | 0.00 | 0.00 | 0.00 | 47 | 1009.8 |
| 20260508081256 | 13 | 204 | 3.2 | 6.4 | 0.00 | 0.00 | 0.00 | 46 | 1010.4 |
| 20260508080804 | 13 | 204 | 3.2 | 6.4 | 0.00 | 0.00 | 0.00 | 46 | 1010.6 |
| 20260508080225 | 13 | 204 | 0.0 | 11.3 | 0.00 | 0.00 | 0.00 | 47 | 1010.6 |
| 20260508080046 | 13 | 204 | 1.6 | 11.3 | 0.00 | 0.00 | 0.00 | 47 | 1010.1 |
| 20260508075731 | 13 | 204 | 8.0 | 11.3 | 0.00 | 0.00 | 0.00 | 46 | 1010.8 |
| 20260508075238 | 13 | 74 | 4.8 | 6.4 | 0.00 | 0.00 | 0.00 | 46 | 1010.6 |
| 20260508074809 | 13 | 120 | 1.6 | 3.2 | 0.00 | 0.00 | 0.00 | 46 | 1011.0 |
| 20260508074526 | 13 | 120 | 0.0 | 3.2 | 0.00 | 0.00 | 0.00 | 48 | 1010.4 |
| 20260508074232 | 13 | 120 | 1.6 | 4.8 | 0.00 | 0.00 | 0.00 | 46 | 1010.7 |
| 20260508073743 | 13 | 120 | 1.6 | 4.8 | 0.00 | 0.00 | 0.00 | 43 | 1010.8 |
| 20260508073226 | 13 | 120 | 3.2 | 9.7 | 0.00 | 0.00 | 0.00 | 43 | 1010.7 |
| 20260508073025 | 13 | 120 | 3.2 | 9.7 | 0.00 | 0.00 | 0.00 | 43 | 1010.0 |
| 20260508072737 | 13 | 120 | 4.8 | 9.7 | 0.00 | 0.00 | 0.00 | 43 | 1010.5 |
| 20260508072249 | 13 | 76 | 6.4 | 8.0 | 0.00 | 0.00 | 0.00 | 44 | 1010.3 |
| 20260508071727 | 13 | 52 | 1.6 | 9.7 | 0.00 | 0.00 | 0.00 | 43 | 1010.6 |
| 20260508071533 | 13 | 50 | 0.0 | 9.7 | 0.00 | 0.00 | 0.00 | 45 | 1010.0 |
| 20260508071240 | 13 | 34 | 6.4 | 9.7 | 0.00 | 0.00 | 0.00 | 46 | 1010.3 |
| 20260508070722 | 13 | 40 | 8.0 | 9.7 | 0.00 | 0.00 | 0.00 | 45 | 1010.3 |
| 20260508070234 | 13 | 26 | 6.4 | 8.0 | 0.00 | 0.00 | 0.00 | 44 | 1010.4 |
| 20260508070035 | 13 | 30 | 6.4 | 8.0 | 0.00 | 0.00 | 0.00 | 44 | 1009.8 |
| 20260508065746 | 13 | 52 | 6.4 | 8.0 | 0.00 | 0.00 | 0.00 | 43 | 1010.4 |
| 20260508065231 | 13 | 52 | 6.4 | 11.3 | 0.00 | 0.00 | 0.00 | 44 | 1010.4 |
| 20260508064742 | 13 | 38 | 8.0 | 11.3 | 0.00 | 0.00 | 0.00 | 46 | 1010.4 |
| 20260508064541 | 13 | 39 | 6.4 | 8.0 | 0.00 | 0.00 | 0.00 | 45 | 1009.8 |
| 20260508064228 | 13 | 53 | 6.4 | 8.0 | 0.00 | 0.00 | 0.00 | 44 | 1010.4 |
| 20260508063733 | 13 | 53 | 4.8 | 8.0 | 0.00 | 0.00 | 0.00 | 42 | 1010.6 |
| 20260508063245 | 13 | 54 | 6.4 | 8.0 | 0.00 | 0.00 | 0.00 | 42 | 1010.5 |
| 20260508063027 | 13 | 137 | 4.8 | 6.4 | 0.00 | 0.00 | 0.00 | 42 | 1010.0 |
| 20260508062728 | 13 | 137 | 4.8 | 6.4 | 0.00 | 0.00 | 0.00 | 43 | 1010.6 |
| 20260508062241 | 13 | 137 | 1.6 | 6.4 | 0.00 | 0.00 | 0.00 | 43 | 1010.7 |
| 20260508061724 | 13 | 137 | 3.2 | 6.4 | 0.00 | 0.00 | 0.00 | 43 | 1010.8 |
| 20260508061539 | 13 | 137 | 4.8 | 6.4 | 0.00 | 0.00 | 0.00 | 43 | 1010.2 |
| 20260508061237 | 14 | 137 | 6.4 | 6.4 | 0.00 | 0.00 | 0.00 | 43 | 1010.8 |
| 20260508060745 | 14 | 137 | 4.8 | 6.4 | 0.00 | 0.00 | 0.00 | 40 | 1010.8 |
| 20260508060229 | 14 | 91 | 3.2 | 6.4 | 0.00 | 0.00 | 0.00 | 39 | 1010.8 |
| 20260508060041 | 13 | 91 | 3.2 | 6.4 | 0.00 | 0.00 | 0.00 | 39 | 1010.1 |
| 20260508055738 | 14 | 91 | 4.8 | 6.4 | 0.00 | 0.00 | 0.00 | 40 | 1010.7 |
| 20260508055222 | 14 | 61 | 4.8 | 6.4 | 0.00 | 0.00 | 0.00 | 40 | 1010.6 |
| 20260508054733 | 14 | 57 | 4.8 | 6.4 | 0.00 | 0.00 | 0.00 | 40 | 1010.5 |
| 20260508054549 | 14 | 57 | 4.8 | 6.4 | 0.00 | 0.00 | 0.00 | 40 | 1009.8 |
| 20260508054244 | 14 | 57 | 4.8 | 8.0 | 0.00 | 0.00 | 0.00 | 40 | 1010.5 |
| 20260508053724 | 14 | 56 | 4.8 | 8.0 | 0.00 | 0.00 | 0.00 | 40 | 1010.4 |
| 20260508053236 | 14 | 57 | 4.8 | 8.0 | 0.00 | 0.00 | 0.00 | 40 | 1010.4 |
| 20260508053101 | 14 | 51 | 4.8 | 8.0 | 0.00 | 0.00 | 0.00 | 40 | 1009.8 |
| 20260508052746 | 14 | 53 | 6.4 | 8.0 | 0.00 | 0.00 | 0.00 | 40 | 1010.3 |
| 20260508052230 | 14 | 66 | 6.4 | 8.0 | 0.00 | 0.00 | 0.00 | 40 | 1010.4 |
| 20260508051737 | 14 | 58 | 6.4 | 8.0 | 0.00 | 0.00 | 0.00 | 40 | 1010.3 |
| 20260508051605 | 14 | 56 | 4.8 | 8.0 | 0.00 | 0.00 | 0.00 | 39 | 1009.8 |
| 20260508051249 | 14 | 50 | 6.4 | 9.7 | 0.00 | 0.00 | 0.00 | 39 | 1010.4 |
| 20260508050739 | 14 | 22 | 6.4 | 9.7 | 0.00 | 0.00 | 0.00 | 39 | 1010.4 |
| 20260508050248 | 14 | 24 | 6.4 | 8.0 | 0.00 | 0.00 | 0.00 | 40 | 1010.4 |
| 20260508050033 | 14 | 39 | 4.8 | 9.7 | 0.00 | 0.00 | 0.00 | 39 | 1010.0 |
| 20260508045749 | 14 | 42 | 6.4 | 9.7 | 0.00 | 0.00 | 0.00 | 39 | 1010.5 |
| 20260508045232 | 14 | 42 | 6.4 | 9.7 | 0.00 | 0.00 | 0.00 | 39 | 1010.6 |
| 20260508044743 | 14 | 49 | 6.4 | 8.0 | 0.00 | 0.00 | 0.00 | 38 | 1010.7 |
| 20260508044515 | 14 | 58 | 4.8 | 8.0 | 0.00 | 0.00 | 0.00 | 38 | 1010.2 |
| 20260508044232 | 14 | 58 | 4.8 | 6.4 | 0.00 | 0.00 | 0.00 | 38 | 1010.7 |
| 20260508043744 | 14 | 58 | 4.8 | 6.4 | 0.00 | 0.00 | 0.00 | 38 | 1010.8 |
| 20260508043228 | 14 | 62 | 4.8 | 8.0 | 0.00 | 0.00 | 0.00 | 37 | 1010.8 |
| 20260508043022 | 14 | 62 | 4.8 | 8.0 | 0.00 | 0.00 | 0.00 | 37 | 1010.3 |
| 20260508042739 | 15 | 62 | 4.8 | 8.0 | 0.00 | 0.00 | 0.00 | 37 | 1010.8 |
| 20260508042252 | 15 | 66 | 6.4 | 8.0 | 0.00 | 0.00 | 0.00 | 37 | 1010.7 |
| 20260508041743 | 15 | 71 | 6.4 | 8.0 | 0.00 | 0.00 | 0.00 | 37 | 1010.7 |
| 20260508041608 | 14 | 64 | 4.8 | 8.0 | 0.00 | 0.00 | 0.00 | 37 | 1010.2 |
| 20260508041514 | 14 | 65 | 4.8 | 8.0 | 0.00 | 0.00 | 0.00 | 37 | 1010.2 |
| 20260508041227 | 15 | 66 | 4.8 | 8.0 | 0.00 | 0.00 | 0.00 | 37 | 1010.8 |
| 20260508040733 | 15 | 67 | 6.4 | 11.3 | 0.00 | 0.00 | 0.00 | 37 | 1010.8 |
| 20260508040243 | 15 | 83 | 6.4 | 11.3 | 0.00 | 0.00 | 0.00 | 37 | 1010.8 |
| 20260508040010 | 14 | 92 | 6.4 | 11.3 | 0.00 | 0.00 | 0.00 | 37 | 1010.2 |
| 20260508035726 | 15 | 88 | 8.0 | 11.3 | 0.00 | 0.00 | 0.00 | 37 | 1010.7 |
| 20260508035237 | 15 | 86 | 6.4 | 11.3 | 0.00 | 0.00 | 0.00 | 37 | 1010.6 |
| 20260508034723 | 15 | 83 | 6.4 | 11.3 | 0.00 | 0.00 | 0.00 | 37 | 1010.5 |
| 20260508034526 | 15 | 68 | 6.4 | 9.7 | 0.00 | 0.00 | 0.00 | 36 | 1010.1 |
| 20260508034237 | 15 | 86 | 6.4 | 9.7 | 0.00 | 0.00 | 0.00 | 36 | 1010.6 |
| 20260508033746 | 15 | 82 | 6.4 | 9.7 | 0.00 | 0.00 | 0.00 | 36 | 1010.6 |
| 20260508033237 | 15 | 49 | 6.4 | 8.0 | 0.00 | 0.00 | 0.00 | 36 | 1010.7 |
| 20260508033009 | 15 | 49 | 4.8 | 6.4 | 0.00 | 0.00 | 0.00 | 36 | 1010.2 |
| 20260508032748 | 15 | 49 | 4.8 | 6.4 | 0.00 | 0.00 | 0.00 | 36 | 1010.8 |
| 20260508032238 | 15 | 49 | 4.8 | 6.4 | 0.00 | 0.00 | 0.00 | 36 | 1010.8 |
| 20260508031749 | 16 | 49 | 4.8 | 6.4 | 0.00 | 0.00 | 0.00 | 35 | 1010.7 |
| 20260508031532 | 15 | 49 | 4.8 | 6.4 | 0.00 | 0.00 | 0.00 | 35 | 1010.2 |
| 20260508031302 | 16 | 49 | 4.8 | 6.4 | 0.00 | 0.00 | 0.00 | 35 | 1010.7 |
| 20260508030723 | 16 | 49 | 4.8 | 8.0 | 0.00 | 0.00 | 0.00 | 35 | 1010.7 |
| 20260508030237 | 16 | 49 | 6.4 | 8.0 | 0.00 | 0.00 | 0.00 | 35 | 1010.7 |
| 20260508030019 | 16 | 49 | 4.8 | 8.0 | 0.00 | 0.00 | 0.00 | 35 | 1010.2 |
| 20260508025744 | 16 | 49 | 6.4 | 8.0 | 0.00 | 0.00 | 0.00 | 35 | 1010.7 |
| 20260508025225 | 16 | 49 | 6.4 | 8.0 | 0.00 | 0.00 | 0.00 | 34 | 1010.7 |
| 20260508024736 | 16 | 49 | 6.4 | 9.7 | 0.00 | 0.00 | 0.00 | 34 | 1010.6 |
| 20260508024525 | 16 | 49 | 4.8 | 9.7 | 0.00 | 0.00 | 0.00 | 34 | 1010.1 |
| 20260508024223 | 16 | 49 | 6.4 | 9.7 | 0.00 | 0.00 | 0.00 | 33 | 1010.5 |
| 20260508023736 | 16 | 44 | 4.8 | 8.0 | 0.00 | 0.00 | 0.00 | 33 | 1010.5 |
| 20260508023222 | 16 | 44 | 3.2 | 6.4 | 0.00 | 0.00 | 0.00 | 32 | 1010.5 |
| 20260508023030 | 16 | 32 | 3.2 | 8.0 | 0.00 | 0.00 | 0.00 | 32 | 1010.1 |
| 20260508022733 | 16 | 42 | 4.8 | 8.0 | 0.00 | 0.00 | 0.00 | 32 | 1010.5 |
| 20260508022244 | 17 | 26 | 4.8 | 8.0 | 0.00 | 0.00 | 0.00 | 32 | 1010.4 |
| 20260508021727 | 17 | 19 | 6.4 | 8.0 | 0.00 | 0.00 | 0.00 | 31 | 1010.3 |
| 20260508021530 | 17 | 10 | 4.8 | 8.0 | 0.00 | 0.00 | 0.00 | 31 | 1009.8 |
| 20260508021239 | 17 | 9 | 4.8 | 6.4 | 0.00 | 0.00 | 0.00 | 31 | 1010.2 |
| 20260508020750 | 17 | 9 | 3.2 | 6.4 | 0.00 | 0.00 | 0.00 | 31 | 1010.0 |
| 20260508020242 | 17 | 9 | 3.2 | 6.4 | 0.00 | 0.00 | 0.00 | 30 | 1010.0 |
| 20260508020058 | 17 | 9 | 4.8 | 6.4 | 0.00 | 0.00 | 0.00 | 30 | 1009.4 |
| 20260508015733 | 17 | 9 | 4.8 | 6.4 | 0.00 | 0.00 | 0.00 | 30 | 1009.9 |
| 20260508015246 | 18 | 5 | 4.8 | 8.0 | 0.00 | 0.00 | 0.00 | 30 | 1009.9 |
| 20260508014730 | 18 | 9 | 4.8 | 9.7 | 0.00 | 0.00 | 0.00 | 29 | 1009.9 |
| 20260508014600 | 18 | 355 | 4.8 | 9.7 | 0.00 | 0.00 | 0.00 | 30 | 1009.4 |
| 20260508014243 | 18 | 350 | 6.4 | 9.7 | 0.00 | 0.00 | 0.00 | 30 | 1009.8 |
| 20260508013809 | 18 | 355 | 6.4 | 9.7 | 0.00 | 0.00 | 0.00 | 29 | 1009.9 |
| 20260508013235 | 18 | 350 | 6.4 | 9.7 | 0.00 | 0.00 | 0.00 | 29 | 1009.8 |
| 20260508013044 | 18 | 355 | 6.4 | 9.7 | 0.00 | 0.00 | 0.00 | 28 | 1009.2 |
| 20260508012748 | 19 | 343 | 8.0 | 9.7 | 0.00 | 0.00 | 0.00 | 28 | 1009.7 |
| 20260508012233 | 19 | 355 | 6.4 | 9.7 | 0.00 | 0.00 | 0.00 | 28 | 1009.6 |
| 20260508011807 | 20 | 350 | 8.0 | 16.1 | 0.00 | 0.00 | 0.00 | 28 | 1009.6 |
| 20260508011524 | 20 | 5 | 6.4 | 16.1 | 0.00 | 0.00 | 0.00 | 28 | 1009.1 |
| 20260508011232 | 20 | 355 | 9.7 | 16.1 | 0.00 | 0.00 | 0.00 | 27 | 1009.5 |
| 20260508010744 | 20 | 360 | 11.3 | 16.1 | 0.00 | 0.00 | 0.00 | 27 | 1009.5 |
| 20260508010221 | 21 | 360 | 11.3 | 14.5 | 0.00 | 0.00 | 0.00 | 27 | 1009.5 |
| 20260508010029 | 20 | 360 | 8.0 | 14.5 | 0.00 | 0.00 | 0.00 | 27 | 1009.0 |
| 20260508005754 | 21 | 347 | 8.0 | 14.5 | 0.00 | 0.00 | 0.00 | 27 | 1009.4 |
| 20260508005245 | 21 | 345 | 6.4 | 9.7 | 0.00 | 0.00 | 0.00 | 26 | 1009.4 |
| 20260508004733 | 21 | 340 | 6.4 | 12.9 | 0.00 | 0.00 | 0.00 | 26 | 1009.4 |